STARLINK-34533, 64715

Orbit data source: Space-Track

STARLINK-34533, 64715 is a payload satellite owned by SpaceX/Seattle (US) in LEO that was launched on Sat, 28 Jun 2025 UTC via an FALCON 9 launch vehicle from the Air Force Western Test Range (AFWTR). Payload-class satellites include a variety of spacecraft equipped with specific instruments for various scientific and technological missions. These include communications satellites like Starlink; space stations such as the ISS; scientific satellites like the Hubble; Earth observation satellites from companies like Planet Labs, Umbra, and HawkEye 360; GPS; miniature CubeSats for education and research; and military/defense satellites.

Loading next visibility...
Identifier
64715, 2025-142V
Orbit
LEO
Country
Flag of USUS
Related business
Manufacturer
SpaceX/Seattle
Mission
Operational Commercial Communications
Bus & Motor
STARLINK V2MO, Unknown motor
Mass
575 kg wet, ~530 kg dry
Launch date (UTC)
2025-06-28 (11 months ago)
Launch vehicle
FALCON 9
Launch site
Air Force Western Test Range (AFWTR)
Object type
Payload
Rocket body
Debris
Shape & HBR
Box + 2 Pan, 17.7 m
Radar Cross Section
36.964 m², Large (>1 m²)

Expand to show TLE details & history
Last TLE update: 10 hours ago

TLE from 10 hours ago
0 STARLINK-34533
1 64715U 25142V   26145.34628770  .00004091  00000-0  35034-3 0  9994
2 64715  69.9999 121.1603 0004107 267.3195  92.7494 14.98339317 50946
Epoch: 2026-05-25T08:18Z
TLE epoch observation values (Epoch: 2026-05-25T08:18:39.257Z)
Latitude
-0.00001°
Longitude
113.56133°
Altitude
574.589 km
Speed
7.574 km/s
True Right ascension
08h 04m 38s
True Declination
0° 00' 00"
Sunlit
Object was in daylight at epoch
Visualization orbit readout
Latitude
Unknown
Longitude
Unknown
Altitude
Unknown
Speed
Unknown
Apparent Right ascension
Unknown
Apparent Declination
Unknown
Sunlit
N/A
Visualization observer readout
Local Sidereal Time
03:58:45
Azimuth
Unknown
Elevation
Unknown
Doppler factor
Unknown
Orbital elements
Apogee altitude
572.829 km
Perigee altitude
567.122 km
Semi-major axis
6,948.112 km
Eccentricity
0.00041
Inclination
69.9999°
RAAN
121.1603°
Arg. of periapsis
267.3195°
True anomaly
92.79641°
Mean anomaly
92.7494°
Eccentric anomaly
92.7729°
Mean motion
3.74751 °/min
Orbital period
96.06 mins
BSTAR
0.00035034
Loading maneuver chart data...
Computing Atmospheric mass density...
Loading historical data...
Loading historical data...
Loading historical data...
Loading historical data...
Loading historical data...
Loading historical data...
Loading historical data...

Documentation

Showing up to 5 results
|